Weather History for Homestead AFB, FL

Change the Weather History Date:

Saturday, December 29, 2012

  Actual Average Record
Temperature  
Mean Temperature 76 °F -  
Max Temperature 82 °F 77 °F 86 °F (1981)
Min Temperature 66 °F 55 °F 32 °F (1961)
Cooling Degree Days 10    
Growing Degree Days 26 (Base 50)    
Moisture  
Dew Point 70 °F    
Average Humidity 87    
Maximum Humidity 100    
Minimum Humidity 67    
Precipitation  
Precipitation 0.00 in - - ()
Sea Level Pressure  
Sea Level Pressure 30.03 in    
Wind  
Wind Speed 7 mph (WSW)    
Max Wind Speed 15 mph    
Max Gust Speed 23 mph    
Visibility 9 miles    
Events Fog    
Averages and records for this station are not official NWS values.
T = Trace of Precipitation, MM = Missing Value Source: NWS Daily Summary

Daily Weather History Graph

Daily Weather History Graph

Search for Another Location

Airport:

Trip Planner

Search our weather history database for the weather conditions in past years. The results will help you decide how hot, cold, wet, or windy it might be!

Date:

Astronomy

Dec. 29, 2012 Rise Set
Actual Time 7:06 AM EST 5:41 PM EST
Civil Twilight 6:41 AM EST 6:06 PM EST
Nautical Twilight 6:13 AM EST 6:34 PM EST
Astronomical Twilight 5:45 AM EST 7:02 PM EST
Moon 7:02 PM EST (12/29) 7:47 AM EST (12/29)
Length of Visible Light 11h 24m
Length of Day
10h 34m
Full, 98% of the Moon is Illuminated
Dec 29
Full
Jan 4
Last Quarter
Jan 11
New
Jan 18
First Quarter
Jan 26
Full

Hourly Weather History & Observations

Time (EST) Temp. Heat Index Dew Point Humidity Pressure Visibility Wind Dir Wind Speed Gust Speed Precip Events Conditions
12:55 AM 71.1 °F - 70.9 °F 99% 30.01 in 10.0 mi SSE 5.8 mph - N/A   Clear
1:55 AM 72.1 °F - 72.0 °F 99% 29.99 in 10.0 mi SSE 6.9 mph - N/A   Clear
2:55 AM 72.3 °F - 72.0 °F 99% 29.97 in 10.0 mi South 5.8 mph - N/A   Clear
4:55 AM 69.8 °F - 69.8 °F 100% 29.98 in 10.0 mi Calm Calm - N/A   Clear
5:55 AM 70.2 °F - 69.8 °F 99% 30.00 in 10.0 mi Calm Calm - N/A   Clear
6:36 AM 69.8 °F - 69.8 °F 100% 30.01 in 1.8 mi Calm Calm - N/A   Clear
6:37 AM 69.8 °F - 69.8 °F 100% 30.01 in 1.2 mi Calm Calm - N/A   Clear
6:40 AM 69.8 °F - 68.0 °F 94% 30.01 in 0.8 mi Calm Calm - N/A   Clear
6:55 AM 69.3 °F - 69.1 °F 99% 30.02 in 3.0 mi Calm Calm - N/A Fog Shallow Fog
7:55 AM 71.1 °F - 70.9 °F 99% 30.04 in 10.0 mi Calm Calm - N/A   Clear
8:55 AM 74.5 °F - 74.1 °F 99% 30.06 in 10.0 mi South 5.8 mph - N/A   Clear
9:55 AM 78.8 °F - 73.6 °F 84% 30.06 in 10.0 mi South 12.7 mph - N/A   Clear
10:55 AM 79.3 °F - 72.3 °F 79% 30.06 in 10.0 mi SW 12.7 mph - N/A   Clear
11:55 AM 81.3 °F 86.1 °F 72.7 °F 75% 30.04 in 10.0 mi SW 12.7 mph 20.7 mph N/A   Partly Cloudy
12:55 PM 80.6 °F 85.2 °F 73.2 °F 78% 30.01 in 10.0 mi SW 10.4 mph 18.4 mph N/A   Partly Cloudy
1:55 PM 82.6 °F 88.3 °F 73.2 °F 73% 29.99 in 10.0 mi WSW 12.7 mph 23.0 mph N/A   Partly Cloudy
2:55 PM 82.6 °F 86.8 °F 70.7 °F 67% 29.98 in 10.0 mi West 15.0 mph - N/A   Clear
3:55 PM 81.7 °F 85.2 °F 69.6 °F 67% 29.98 in 10.0 mi West 15.0 mph - N/A   Clear
4:55 PM 79.5 °F - 70.0 °F 72% 29.98 in 10.0 mi SW 11.5 mph - N/A   Clear
5:44 PM 77.0 °F - 69.8 °F 78% 30.01 in 10.0 mi WSW 8.1 mph - N/A   Mostly Cloudy
5:55 PM 77.4 °F - 69.6 °F 77% 30.01 in 10.0 mi WSW 10.4 mph - N/A   Mostly Cloudy
6:07 PM 77.0 °F - 69.8 °F 78% 30.01 in 10.0 mi WSW 8.1 mph - N/A   Scattered Clouds
6:55 PM 76.1 °F - 70.0 °F 81% 30.02 in 10.0 mi WSW 10.4 mph - N/A   Scattered Clouds
7:55 PM 75.6 °F - 70.9 °F 85% 30.04 in 10.0 mi West 9.2 mph - N/A   Partly Cloudy
8:55 PM 74.1 °F - 70.0 °F 87% 30.07 in 10.0 mi WNW 11.5 mph - N/A   Scattered Clouds
9:13 PM 73.4 °F - 69.8 °F 88% 30.08 in 10.0 mi WNW 10.4 mph - N/A   Light Drizzle
9:25 PM 73.4 °F - 69.8 °F 88% 30.07 in 10.0 mi West 8.1 mph - N/A   Mostly Cloudy
9:55 PM 72.5 °F - 69.1 °F 89% 30.08 in 10.0 mi West 11.5 mph - 0.00 in   Scattered Clouds
10:55 PM 69.1 °F - 61.9 °F 78% 30.10 in 10.0 mi WNW 10.4 mph - N/A   Clear
11:55 PM 66.0 °F - 61.3 °F 85% 30.12 in 10.0 mi NW 12.7 mph - N/A   Clear